EW8865 Weather Reports


Display with metric or nautical units.
time (UTC)temp
F
wind
direction
speed
MPH
gust
MPH
rain 1hr
in
rain 24hr
in
rain mn
in
humidity
%
barometer
mb
20260906050004 56 125 0.0 0.0 0.01 0.06 0.06 91 1020.9
20260906045504 56 125 0.0 0.0 0.02 0.06 0.06 91 1021.0
20260906045004 56 124 0.0 2.0 0.02 0.06 0.06 91 1021.0
20260906043004 56 125 0.0 2.0 0.03 0.06 0.06 91 1021.3
20260906042504 56 124 1.0 3.0 0.04 0.06 0.06 91 1021.3
20260906042004 56 125 1.0 2.0 0.04 0.06 0.06 91 1021.3
20260906041004 56 125 2.0 3.0 0.05 0.06 0.06 90 1021.4
20260906040503 56 149 0.0 0.0 0.06 0.06 0.06 90 1021.6
20260906040003 56 149 0.0 0.0 0.05 0.06 0.06 90 1021.6
20260906035503 56 260 0.0 0.0 0.04 0.05 0.05 90 1021.8
20260906034503 56 260 0.0 0.0 0.04 0.05 0.05 90 1022.0
20260906034004 56 260 0.0 0.0 0.04 0.05 0.05 89 1022.2
20260906033504 56 260 0.0 0.0 0.03 0.04 0.04 89 1022.2
20260906033004 56 260 0.0 0.0 0.02 0.03 0.03 89 1022.3
20260906032504 56 260 0.0 0.0 0.02 0.02 0.02 89 1022.4
20260906032004 56 260 0.0 0.0 0.02 0.02 0.02 89 1022.4
20260906031503 56 260 0.0 0.0 0.02 0.02 0.02 89 1022.6
20260906031004 56 260 0.0 0.0 0.01 0.02 0.02 89 1022.7
20260906030503 56 260 0.0 0.0 0.00 0.01 0.01 89 1022.7
20260906030004 56 260 0.0 0.0 0.00 0.01 0.01 89 1022.7
20260906025003 56 260 0.0 0.0 0.00 0.01 0.01 88 1022.6
20260906024503 56 260 0.0 0.0 0.00 0.01 0.01 88 1022.7
20260906024005 56 260 0.0 0.0 0.00 0.01 0.01 88 1022.7
20260906023503 56 260 0.0 0.0 0.00 0.01 0.01 88 1022.8
20260906023004 56 260 0.0 0.0 0.00 0.01 0.01 88 1022.8
20260906022503 56 260 0.0 0.0 0.00 0.01 0.01 88 1022.9
20260906022004 56 260 0.0 0.0 0.00 0.01 0.01 88 1023.0
20260906021503 56 260 0.0 0.0 0.01 0.01 0.01 88 1023.0
20260906021005 56 260 0.0 0.0 0.01 0.01 0.01 88 1023.1
20260906020504 56 260 0.0 0.0 0.01 0.01 0.01 87 1023.1
20260906020003 56 260 0.0 0.0 0.01 0.01 0.01 87 1023.1
20260906015504 56 260 0.0 0.0 0.01 0.01 0.01 87 1023.1
20260906014504 56 260 0.0 0.0 0.01 0.01 0.01 87 1023.2
20260906014004 56 260 0.0 0.0 0.01 0.01 0.01 87 1023.3
20260906013503 56 260 0.0 0.0 0.01 0.01 0.01 87 1023.4
20260906013005 56 260 0.0 0.0 0.01 0.01 0.01 87 1023.4
20260906012504 56 260 0.0 0.0 0.01 0.01 0.01 87 1023.4
20260906012004 56 260 0.0 0.0 0.01 0.01 0.01 86 1023.5
20260906011503 56 260 0.0 0.0 0.00 0.00 0.00 86 1023.6
20260906011003 56 261 0.0 0.0 0.00 0.00 0.00 86 1023.6
20260906010503 56 261 0.0 0.0 0.00 0.00 0.00 86 1023.6
20260906005504 56 261 0.0 0.0 0.00 0.00 0.00 86 1023.8
20260906005004 56 260 0.0 0.0 0.00 0.00 0.00 86 1023.8
20260906004504 56 260 0.0 0.0 0.00 0.00 0.00 86 1023.8
20260906004004 56 260 0.0 0.0 0.00 0.00 0.00 85 1023.9
20260906003504 56 260 0.0 0.0 0.00 0.00 0.00 85 1023.9
20260906003003 56 260 0.0 0.0 0.00 0.00 0.00 85 1024.0
20260906002504 56 260 0.0 0.0 0.00 0.00 0.00 85 1024.1
20260906001504 56 260 0.0 0.0 0.00 0.00 0.00 85 1024.1
20260906000505 56 260 0.0 0.0 0.00 0.00 0.00 84 1024.2
20260905235003 56 260 0.0 0.0 0.00 0.00 0.00 84 1024.3
20260905234504 56 261 0.0 0.0 0.00 0.00 0.00 84 1024.3
20260905234004 56 260 0.0 0.0 0.00 0.00 0.00 84 1024.3
20260905233503 56 261 0.0 0.0 0.00 0.00 0.00 84 1024.3
20260905233004 56 261 0.0 0.0 0.00 0.00 0.00 84 1024.3
20260905232504 56 245 0.0 0.0 0.00 0.00 0.00 84 1024.4
20260905231504 56 245 0.0 0.0 0.00 0.00 0.00 83 1024.4
20260905231004 56 245 0.0 0.0 0.00 0.00 0.00 83 1024.4
20260905230505 56 245 0.0 0.0 0.00 0.00 0.00 83 1024.4
20260905230003 56 245 0.0 0.0 0.00 0.00 0.00 83 1024.4
20260905225503 56 245 0.0 0.0 0.00 0.00 0.00 83 1024.5
20260905225003 56 245 0.0 0.0 0.00 0.00 0.00 83 1024.5
20260905224504 56 245 0.0 0.0 0.00 0.00 0.00 83 1024.5
20260905224004 56 245 0.0 0.0 0.00 0.00 0.00 83 1024.5
20260905223004 56 245 0.0 0.0 0.00 0.00 0.00 82 1024.4
20260905222004 56 245 0.0 0.0 0.00 0.00 0.00 82 1024.4
20260905221504 56 245 0.0 0.0 0.00 0.00 0.00 82 1024.3
20260905221004 56 244 0.0 0.0 0.00 0.00 0.00 82 1024.4
20260905220004 56 244 0.0 0.0 0.00 0.00 0.00 81 1024.5
20260905215504 56 244 0.0 0.0 0.00 0.00 0.00 81 1024.5
20260905215004 56 244 0.0 0.0 0.00 0.00 0.00 81 1024.5
20260905214504 57 244 0.0 0.0 0.00 0.00 0.00 81 1024.5
20260905214004 57 244 0.0 0.0 0.00 0.00 0.00 81 1024.5
20260905213504 57 244 0.0 0.0 0.00 0.00 0.00 80 1024.5
20260905213004 57 244 0.0 0.0 0.00 0.00 0.00 80 1024.4
20260905212504 57 244 0.0 0.0 0.00 0.00 0.00 80 1024.5
20260905212003 57 245 0.0 0.0 0.00 0.00 0.00 80 1024.5
20260905211504 57 245 0.0 0.0 0.00 0.00 0.00 79 1024.4
20260905211003 57 245 0.0 2.0 0.00 0.00 0.00 79 1024.4
20260905210003 57 245 2.0 3.0 0.00 0.00 0.00 79 1024.6
20260905205003 57 293 0.0 0.0 0.00 0.00 0.00 80 1024.5
20260905204504 57 293 0.0 0.0 0.00 0.00 0.00 79 1024.4
20260905204003 57 293 0.0 0.0 0.00 0.00 0.00 79 1024.4
20260905203504 57 293 0.0 0.0 0.00 0.00 0.00 79 1024.3
20260905203003 57 293 0.0 0.0 0.00 0.00 0.00 79 1024.3
20260905202503 57 293 0.0 1.0 0.00 0.00 0.00 79 1024.3
20260905202003 57 294 1.0 2.0 0.00 0.00 0.00 78 1024.3
20260905201503 58 295 1.0 3.0 0.00 0.00 0.00 77 1024.2
20260905201004 58 254 2.0 3.0 0.00 0.00 0.00 76 1024.1
20260905200504 58 254 1.0 2.0 0.00 0.00 0.00 75 1024.1
20260905200004 58 254 2.0 3.0 0.00 0.00 0.00 75 1024.1
20260905195503 58 254 2.0 3.0 0.00 0.00 0.00 75 1024.1
20260905195004 58 254 1.0 2.0 0.00 0.00 0.00 74 1024.1
20260905194504 59 254 1.0 3.0 0.00 0.00 0.00 74 1024.1
20260905194004 59 254 2.0 3.0 0.00 0.00 0.00 74 1024.2
20260905193503 59 254 0.0 2.0 0.00 0.00 0.00 73 1024.1
20260905193004 59 254 0.0 0.0 0.00 0.00 0.00 73 1024.1
20260905191503 60 254 0.0 3.0 0.00 0.00 0.00 72 1023.9
20260905191004 60 254 2.0 3.0 0.00 0.00 0.00 72 1023.9
20260905190504 60 260 2.0 6.0 0.00 0.00 0.00 72 1024.0
20260905190004 60 257 5.0 7.0 0.00 0.00 0.00 71 1024.1
20260905185504 60 238 3.0 8.0 0.00 0.00 0.00 71 1024.1
20260905184503 61 245 5.0 7.0 0.00 0.00 0.00 70 1024.1
20260905184003 61 248 5.0 8.0 0.00 0.00 0.00 70 1024.1
20260905183504 61 262 3.0 6.0 0.00 0.00 0.00 69 1024.0
20260905183004 62 269 3.0 3.0 0.00 0.00 0.00 68 1024.1
20260905182504 62 269 2.0 7.0 0.00 0.00 0.00 67 1024.2
20260905182003 62 265 3.0 6.0 0.00 0.00 0.00 67 1024.2
20260905181503 63 265 3.0 6.0 0.00 0.00 0.00 66 1024.2
20260905181004 63 275 3.0 6.0 0.00 0.00 0.00 65 1024.2
20260905180504 64 265 3.0 8.0 0.00 0.00 0.00 64 1024.2
20260905180004 64 267 5.0 7.0 0.00 0.00 0.00 63 1024.2
20260905175504 65 274 5.0 7.0 0.00 0.00 0.00 62 1024.2
20260905175005 65 265 5.0 8.0 0.00 0.00 0.00 62 1024.1
20260905174504 66 275 4.0 9.0 0.00 0.00 0.00 60 1024.1
20260905174004 66 275 6.0 9.0 0.00 0.00 0.00 59 1024.1
20260905173504 67 275 4.0 8.0 0.00 0.00 0.00 59 1024.1
20260905172503 68 276 5.0 9.0 0.00 0.00 0.00 57 1024.0
20260905172003 68 286 4.0 9.0 0.00 0.00 0.00 56 1024.0
20260905171504 68 239 6.0 10.0 0.00 0.00 0.00 56 1024.1
20260905171004 68 258 6.0 12.0 0.00 0.00 0.00 56 1024.1
20260905170504 68 271 4.0 9.0 0.00 0.00 0.00 57 1024.0
20260905170004 68 210 4.0 9.0 0.00 0.00 0.00 57 1023.9
20260905165504 68 260 5.0 10.0 0.00 0.00 0.00 56 1023.9
20260905164503 69 250 8.0 12.0 0.00 0.00 0.00 55 1024.0
20260905163504 69 243 7.0 12.0 0.00 0.00 0.00 55 1024.0
20260905163004 69 217 5.0 9.0 0.00 0.00 0.00 56 1024.0
20260905162504 69 232 4.0 8.0 0.00 0.00 0.00 56 1023.9
20260905162004 69 254 6.0 10.0 0.00 0.00 0.00 56 1023.9
20260905161503 69 212 5.0 10.0 0.00 0.00 0.00 55 1023.9
20260905161003 69 256 4.0 10.0 0.00 0.00 0.00 56 1024.0
20260905160505 69 240 3.0 9.0 0.00 0.00 0.00 56 1024.0
20260905160003 69 243 6.0 10.0 0.00 0.00 0.00 55 1024.0
20260905155504 69 250 5.0 9.0 0.00 0.00 0.00 55 1024.0
20260905154503 69 233 6.0 12.0 0.00 0.00 0.00 55 1024.1
20260905154004 70 223 6.0 12.0 0.00 0.00 0.00 54 1024.0
20260905153504 70 254 8.0 12.0 0.00 0.00 0.00 56 1024.0
20260905153003 70 291 6.0 9.0 0.00 0.00 0.00 57 1024.0
20260905152503 70 265 5.0 9.0 0.00 0.00 0.00 57 1023.9
20260905152004 70 249 3.0 8.0 0.00 0.00 0.00 56 1024.0
20260905151504 70 256 7.0 12.0 0.00 0.00 0.00 56 1024.1
20260905150503 70 282 9.0 13.0 0.00 0.00 0.00 56 1024.3
20260905150004 70 260 9.0 13.0 0.00 0.00 0.00 56 1024.3
20260905145503 70 246 7.0 12.0 0.00 0.00 0.00 57 1024.4
20260905144504 69 235 7.0 14.0 0.00 0.00 0.00 56 1024.3
20260905143504 69 238 6.0 13.0 0.00 0.00 0.00 58 1024.3
20260905143004 69 267 6.0 12.0 0.00 0.00 0.00 57 1024.4
20260905142504 69 290 7.0 15.0 0.00 0.00 0.00 57 1024.5
20260905141503 69 233 7.0 14.0 0.00 0.00 0.00 56 1024.5
20260905141004 69 249 8.0 12.0 0.00 0.00 0.00 59 1024.5
20260905140503 69 276 6.0 12.0 0.00 0.00 0.00 59 1024.6
20260905140004 69 293 5.0 12.0 0.00 0.00 0.00 59 1024.5
20260905135503 69 226 4.0 10.0 0.00 0.00 0.00 57 1024.5
20260905135004 69 256 6.0 13.0 0.00 0.00 0.00 57 1024.5
20260905134504 69 241 5.0 9.0 0.00 0.00 0.00 58 1024.5
20260905134003 69 266 7.0 13.0 0.00 0.00 0.00 57 1024.5
20260905133003 69 274 7.0 14.0 0.00 0.00 0.00 58 1024.5
20260905132004 70 277 9.0 14.0 0.00 0.00 0.00 58 1024.5
20260905131503 69 274 9.0 18.0 0.00 0.00 0.00 56 1024.4
20260905131003 70 251 10.0 14.0 0.00 0.00 0.00 55 1024.4
20260905130504 70 204 6.0 12.0 0.00 0.00 0.00 55 1024.4
20260905130004 70 280 7.0 14.0 0.00 0.00 0.00 56 1024.3
20260905125504 70 254 7.0 12.0 0.00 0.00 0.00 55 1024.3
20260905125003 70 249 8.0 14.0 0.00 0.00 0.00 57 1024.2
20260905124503 69 297 5.0 10.0 0.00 0.00 0.00 60 1024.2
20260905124003 69 184 6.0 12.0 0.00 0.00 0.00 58 1024.1
20260905123504 68 203 8.0 12.0 0.00 0.00 0.00 56 1024.1
20260905123003 69 228 9.0 13.0 0.00 0.00 0.00 56 1024.2
20260905122004 69 256 7.0 12.0 0.00 0.00 0.00 56 1024.2
20260905121504 69 212 5.0 12.0 0.00 0.00 0.00 59 1024.1
20260905121004 69 202 6.0 14.0 0.00 0.00 0.00 58 1024.2
20260905120003 68 280 5.0 12.0 0.00 0.00 0.00 60 1024.0
20260905115503 67 237 6.0 12.0 0.00 0.00 0.00 61 1024.0
20260905115004 66 281 4.0 8.0 0.00 0.00 0.00 62 1023.9
20260905114004 67 280 6.0 10.0 0.00 0.00 0.00 59 1024.0
20260905113004 68 283 7.0 13.0 0.00 0.00 0.00 57 1024.1
20260905112504 68 301 7.0 12.0 0.00 0.00 0.00 58 1024.1
20260905112004 68 277 8.0 12.0 0.00 0.00 0.00 58 1024.1
20260905111504 68 235 6.0 13.0 0.00 0.00 0.00 58 1024.2
20260905111004 68 265 5.0 12.0 0.00 0.00 0.00 59 1024.2
20260905110504 67 257 5.0 8.0 0.00 0.00 0.00 61 1024.2
20260905110004 66 261 6.0 12.0 0.00 0.00 0.00 59 1024.3
20260905105503 67 310 4.0 10.0 0.00 0.00 0.00 59 1024.2
20260905105003 67 292 7.0 12.0 0.00 0.00 0.00 58 1024.3
20260905104003 67 224 4.0 9.0 0.00 0.00 0.00 57 1024.2
20260905103504 67 251 6.0 10.0 0.00 0.00 0.00 59 1024.3
20260905103004 67 230 3.0 12.0 0.00 0.00 0.00 60 1024.3
20260905102503 66 278 6.0 12.0 0.00 0.00 0.00 62 1024.3
20260905102004 66 274 5.0 9.0 0.00 0.00 0.00 63 1024.3
20260905101504 65 254 4.0 10.0 0.00 0.00 0.00 65 1024.3
20260905101004 64 209 4.0 7.0 0.00 0.00 0.00 64 1024.2
20260905100504 65 279 4.0 9.0 0.00 0.00 0.00 64 1024.3
20260905095504 66 352 4.0 6.0 0.00 0.00 0.00 64 1024.2
20260905095004 66 355 3.0 6.0 0.00 0.00 0.00 66 1024.2
20260905094504 66 345 3.0 7.0 0.00 0.00 0.00 64 1024.1
20260905094003 66 348 3.0 7.0 0.00 0.00 0.00 66 1024.0
20260905093503 66 288 3.0 6.0 0.00 0.00 0.00 66 1024.0
20260905093003 66 306 5.0 8.0 0.00 0.00 0.00 65 1023.9
20260905092504 65 270 8.0 12.0 0.00 0.00 0.00 65 1023.8
20260905092004 65 272 6.0 14.0 0.00 0.00 0.00 64 1023.8
20260905091503 64 268 7.0 12.0 0.00 0.00 0.00 66 1023.8
20260905091003 64 278 7.0 12.0 0.00 0.00 0.00 67 1023.7
20260905090504 64 301 2.0 8.0 0.00 0.00 0.00 70 1023.8
20260905090004 64 276 3.0 9.0 0.00 0.00 0.00 68 1023.7
20260905085503 63 283 3.0 10.0 0.00 0.00 0.00 69 1023.6
20260905084504 62 297 3.0 8.0 0.00 0.00 0.00 71 1023.5
20260905084004 62 298 5.0 13.0 0.00 0.00 0.00 71 1023.6
20260905083504 63 291 9.0 14.0 0.00 0.00 0.00 70 1023.5
20260905083003 62 251 5.0 8.0 0.00 0.00 0.00 72 1023.5
20260905082503 62 282 5.0 8.0 0.00 0.00 0.00 73 1023.5
20260905082004 61 340 4.0 10.0 0.00 0.00 0.00 74 1023.3
20260905081503 61 261 6.0 12.0 0.00 0.00 0.00 75 1023.4
20260905080504 60 291 3.0 7.0 0.00 0.00 0.00 76 1023.3
20260905080004 60 244 3.0 6.0 0.00 0.00 0.00 78 1023.3
20260905075004 58 232 0.0 0.0 0.00 0.00 0.00 81 1023.1
20260905073504 55 250 1.0 2.0 0.00 0.00 0.00 88 1023.1
20260905073003 54 261 1.0 2.0 0.00 0.00 0.00 90 1023.1
20260905072503 54 261 0.0 0.0 0.00 0.00 0.00 91 1023.1
20260905071004 52 261 0.0 0.0 0.00 0.00 0.00 91 1023.0
20260905070503 51 261 0.0 2.0 0.00 0.00 0.00 91 1022.9
20260905070004 51 261 0.0 0.0 0.00 0.00 0.00 91 1022.9
20260905065504 51 261 0.0 0.0 0.00 0.00 0.00 90 1022.8
20260905065004 51 261 0.0 0.0 0.00 0.01 0.00 90 1022.8
20260905064504 50 261 0.0 0.0 0.00 0.01 0.00 90 1022.8
20260905064004 50 261 0.0 0.0 0.00 0.01 0.00 90 1022.6
20260905063503 50 261 0.0 0.0 0.00 0.02 0.00 89 1022.6
20260905063004 50 261 0.0 0.0 0.00 0.02 0.00 89 1022.6
20260905062504 50 261 0.0 2.0 0.00 0.02 0.00 89 1022.6
20260905062004 50 261 0.0 2.0 0.00 0.02 0.00 89 1022.5
20260905060003 50 261 0.0 0.0 0.00 0.03 0.00 87 1022.1
20260905055003 51 261 1.0 2.0 0.00 0.03 0.00 86 1022.0
20260905054503 51 261 0.0 0.0 0.00 0.03 0.00 86 1022.0
20260905054003 51 261 0.0 0.0 0.00 0.03 0.00 86 1021.9
20260905053503 52 261 0.0 1.0 0.00 0.03 0.00 86 1021.7
20260905053004 52 261 1.0 3.0 0.00 0.04 0.00 86 1021.6
20260905052504 52 261 1.0 3.0 0.00 0.04 0.00 86 1021.6
20260905052004 52 263 2.0 3.0 0.00 0.04 0.00 86 1021.6
20260905051503 53 284 0.0 0.0 0.00 0.04 0.00 85 1021.5
20260905051004 53 284 0.0 0.0 0.00 0.04 0.00 84 1021.5
20260905050504 53 285 0.0 0.0 0.00 0.04 0.00 84 1021.3